INMARSAT 5-F4

Last updated on Jan. 15, 2021, 6:31 a.m. UTC

1 42698U 17025A   21014.76993622  .00000069  00000-0  00000-0 0  9991
2 42698   0.0030 127.2965 0000225 322.0086 358.7746  1.00269449 13421
UTC
Height (km)
Latitude
Longitude
Inclination
Orbital Period
UTC large
Height (km)
Speed (km/s)
/
Latitude / Longitude
Inclination (degrees)
Orbital Period (minutes)
Azimuth
Elevation
Range (km)
Doppler Factor
iOS Compass Heading
iOS Angle

Next 30 passes for location: Hong Kong

Rise time Rise Azimuth (degrees) Set time Set Azimuth (degrees) Duration Max altitude (degrees)

No matching passes for this satellites